CAPE
0 0 0 0 0 0 0 0 0 0 0 0 0 0 0 0 0 0 0 0 0 0 0 0 0 0 0 0 0 0 0 0 0 0 0 0 0 0 0 0 0 0 0 0
0 0 0 0 0 0 0 0 0 0 0 0 0 0 0 0 0 0 0 0 0 0 0 0 0 0 0 0 0 0 0 0 0 0 0 0 0 0 0 0 0 0 0 0
0 0 0 0 0 0 0 0 0 0 0 0 0 0 0 0 0 0 0 0 0 0 0 0 0 0 0 0 0 0 0 0 0 0 0 0 0 0 0 0 0 0 0 0
0 0 0 0 0 0 0 0 0 0 0 0 0 0 0 0 0 0 0 0 0 0 0 0 0 0 0 0 0 0 0 0 0 0 0 0 0 0 0 0 0 0 0 0
0 0 0 0 0 0 0 0 0 0 0 0 0 0 0 0 0 0 0 0 0 0 0 0 0 0 0 0 0 0 0 0 0 0 0 0 0 0 0 0 0 0 0 0
0 0 0 0 0 0 0 0 0 0 0 0 0 0 0 0 0 0 0 0 0 0 0 0 0 0 0 0 0 0 0 0 0 0 0 0 0 0 0 0 0 0 0 0
0 0 0 0 0 0 0 0 0 0 0 0 0 0 0 0 0 0 0 0 0 0 0 0 0 0 0 0 0 0 0 0 0 0 0 0 0 0 0 0 0 0 0 0
0 0 0 0 0 0 0 0 0 0 0 0 0 0 0 0 0 0 0 0 0 0 0 0 0 0 0 0 0 0 0 0 0 0 0 0 0 0 0 0 0 0 0 0
0 0 0 0 0 0 0 0 0 0 0 0 0 0 0 0 0 0 0 0 0 0 0 0 0 0 0 0 0 0 0 0 0 0 0 0 0 0 0 0 0 0 0 0
0 0 0 0 0 0 0 0 0 0 0 0 0 0 0 0 0 0 0 0 0 0 0 0 0 0 0 0 0 0 0 0 0 0 0 0 0 0 0 0 0 0 0 0
0 0 0 0 0 0 0 0 0 0 0 0 0 0 0 0 0 0 0 0 0 0 0 0 0 0 0 0 0 0 0 0 0 0 0 0 0 0 0 0 0 0 0 0
0 0 0 0 0 0 0 0 0 0 0 0 0 0 0 0 0 0 24 3 0 0 0 0 0 0 0 0 0 0 0 0 0 0 0 0 0 0 0 0 0 0 0 0
0 0 0 0 0 0 0 0 0 0 0 0 0 0 0 0 1 16 26 64 17 0 0 0 0 0 0 0 0 0 0 0 0 0 0 0 0 0 0 0 0 0 0 0
0 0 0 0 0 0 0 0 0 0 0 0 0 0 0 0 0 0 0 0 19 29 0 0 0 0 0 0 0 0 0 0 0 0 0 0 0 0 0 0 0 0 0 0
0 0 0 0 0 0 0 0 0 0 0 0 0 0 0 0 0 0 0 0 0 16 0 0 0 0 0 0 0 0 0 0 0 0 0 0 0 0 0 0 0 0 0 0
0 0 0 0 0 0 0 0 0 0 0 0 0 0 0 0 0 0 14 4 0 0 0 0 0 0 0 0 0 0 0 0 0 0 0 0 0 0 0 0 0 0 0 0
1 0 0 0 0 2 2 0 0 0 0 0 0 0 0 0 0 0 0 47 33 2 0 0 0 0 0 0 0 0 0 0 0 0 0 0 0 0 0 0 0 0 0 0
0 8 10 3 2 0 0 0 0 0 0 0 0 0 0 0 0 0 0 0 0 25 0 0 0 0 0 0 0 0 0 0 0 0 0 0 0 0 0 0 0 0 0 0
3 10 4 3 0 0 0 0 0 0 0 0 0 0 1 0 0 0 0 0 0 0 0 0 0 0 0 0 0 0 0 0 0 0 0 0 0 0 0 0 0 0 0 0
0 1 0 0 0 0 0 0 0 0 0 0 0 0 0 0 0 0 0 0 0 0 0 0 0 0 0 0 0 0 0 0 0 0 0 0 0 0 0 0 0 0 0 0
0 0 0 0 0 0 0 0 0 0 0 0 0 2 0 0 0 0 0 0 0 0 0 0 0 0 0 0 0 0 0 0 0 0 0 0 0 0 0 0 0 0 0 0
0 0 0 0 0 0 0 0 1 0 0 0 0 0 0 0 0 0 0 0 0 0 2 0 0 0 0 0 0 0 0 0 0 0 0 0 0 0 0 0 0 0 0 0
0 0 0 0 0 0 0 0 0 0 0 0 3 0 0 0 0 0 0 0 2 2 0 0 0 0 0 0 0 0 0 0 0 0 0 0 0 0 0 0 0 0 0 0
0 0 0 0 0 0 0 0 0 0 0 0 0 0 0 0 0 0 0 0 2 4 0 0 0 0 0 0 0 0 0 0 0 0 0 0 0 0 0 0 0 0 0 0
0 0 0 0 0 0 0 0 0 0 0 0 0 0 0 0 0 0 0 0 1 0 0 0 0 0 0 0 0 0 0 0 0 0 0 0 0 0 0 0 0 0 0 0
0 0 0 0 0 0 0 0 0 0 0 0 0 0 0 0 0 0 0 0 1 1 1 1 1 0 0 0 0 0 0 0 0 0 0 0 0 0 0 0 0 0 0 0
CIN
-0 -0 -0 -0 -0 -0 -0 -0 -0 -0 -0 -0 -0 -0 -0 -0 -0 -0 -0 -0 -0 -0 -0 -0 -0 -0 -0 -0 -0 -0 -0 -0 -0 -0 -0 -0 -0 -0 -0 -0 -0 -0 -0 -0
-0 -0 -0 -0 -0 -0 -0 -0 -0 -0 -0 -0 -0 -0 -0 -0 -0 -0 -0 -0 -0 -0 -0 -0 -0 -0 -0 -0 -0 -0 -0 -0 -0 -0 -0 -0 -0 -0 -0 -0 -0 -0 -0 -0
-0 -0 -0 -0 -0 -0 -0 -0 -0 -0 -0 -0 -0 -0 -0 -0 -0 -0 -0 -0 -0 -0 -0 -0 -0 -0 -0 -0 -0 -0 -0 -0 -0 -0 -0 -0 -0 -0 -0 -0 -0 -0 -0 -0
-0 -0 -0 -0 -0 -0 -0 -0 -0 -0 -0 -0 -0 -0 -0 -0 -0 -0 -0 -0 -0 -0 -0 -0 -0 -0 -0 -0 -0 -0 -0 -0 -0 -0 -0 -0 -0 -0 -0 -0 -0 -0 -0 -0
-0 -0 -0 -0 -0 -0 -0 -0 -0 -0 -0 -0 -0 -0 -0 -0 -0 -0 -0 -0 -0 -0 -0 -0 -0 -0 -0 -0 -0 -0 -0 -0 -0 -0 -0 -0 -0 -0 -0 -0 -0 -0 -0 -0
-0 -0 -0 -0 -0 -0 -0 -0 -0 -0 -0 -0 -0 -0 -0 -0 -0 -0 -0 -0 -0 -0 -0 -0 -0 -0 -0 -0 -0 -0 -0 -0 -0 -0 -0 -0 -0 -0 -0 -0 -0 -0 -0 -0
-0 -0 -0 -0 -0 -0 -0 -0 -0 -0 -0 -0 -0 -0 -0 -0 -0 -0 -0 -0 -0 -0 -0 -0 -0 -0 -0 -0 -0 -0 -0 -0 -0 -0 -0 -0 -0 -0 -0 -0 -0 -0 -0 -0
-0 -0 -0 -0 -0 -0 -0 -0 -0 -0 -0 -0 -0 -0 -0 -0 -0 -0 -0 -0 -0 -0 -0 -0 -0 -0 -0 -0 -0 -0 -0 -0 -0 -0 -0 -0 -0 -0 -0 -0 -0 -0 -0 -0
-0 -0 -0 -0 -0 -0 -0 -0 -0 -0 -0 -0 -0 -0 -0 -0 -0 -0 -0 -0 -0 -0 -0 -0 -0 -0 -0 -0 -0 -0 -0 -0 -0 -0 -0 -0 -0 -0 -0 -0 -0 -0 -0 -0
-0 -0 -0 -0 -0 -0 -0 -0 -0 -0 -0 -0 -0 -0 -0 -0 -0 -0 -0 -0 -0 -0 -0 -0 -0 -0 -0 -0 -0 -0 -0 -0 -0 -0 -0 -0 -0 -0 -0 -0 -0 -0 -0 -0
-0 -0 -0 -0 -0 -0 -0 -0 -0 -0 -0 -0 -0 -0 -0 -0 -0 -0 -0 -0 -0 -0 -0 -0 -0 -0 -0 -0 -0 -0 -0 -0 -0 -0 -0 -0 -0 -0 -0 -0 -0 -0 -0 -0
-0 -0 -0 -0 -0 -0 -0 -0 -0 -0 -0 -0 -0 -0 -0 -0 -0 -0 -28 -22 -0 -0 -0 -0 -0 -0 -0 -0 -0 -0 -0 -0 -0 -0 -0 -0 -0 -0 -0 -0 -0 -0 -0 -0
-0 -0 -0 -0 -0 -0 -0 -0 -0 -0 -0 -0 -0 -0 -0 -0 -12 -16 -20 -42 -74 -0 -0 -0 -0 -0 -0 -0 -0 -0 -0 -0 -0 -0 -0 -0 -0 -0 -0 -0 -0 -0 -0 -0
-0 -1 -0 -0 -0 -0 -0 -0 -0 -0 -0 -0 -0 -0 -0 -0 -0 -0 -0 -0 -77 -145 -0 -0 -0 -0 -0 -0 -0 -0 -0 -0 -0 -0 -0 -0 -0 -0 -0 -0 -0 -0 -0 -0
-0 -0 -0 -0 -0 -0 -0 -0 -0 -0 -0 -0 -0 -0 -0 -0 -0 -0 -0 -0 -0 -148 -62 -0 -0 -0 -0 -0 -0 -0 -0 -0 -0 -0 -0 -0 -0 -0 -0 -0 -0 -0 -0 -0
-0 -0 -0 -0 -0 -0 -0 -0 -0 -0 -0 -0 -0 -0 -0 -0 -0 -0 -34 -56 -1 -13 -0 -0 -0 -0 -0 -0 -0 -0 -0 -0 -0 -0 -0 -0 -0 -0 -0 -0 -0 -0 -0 -0
-7 -0 -0 -0 -0 -10 -5 -0 -0 -0 -0 -0 -0 -0 -0 -0 -0 -0 -1 -58 -72 -49 -0 -0 -0 -0 -0 -0 -0 -0 -0 -0 -0 -0 -0 -0 -0 -0 -0 -0 -0 -0 -0 -0
-2 -13 -9 -3 -15 -1 -0 -0 -0 -0 -0 -0 -0 -0 -0 -0 -0 -0 -0 -0 -0 -124 -0 -0 -0 -0 -0 -0 -0 -0 -0 -0 -0 -0 -0 -0 -0 -0 -0 -0 -0 -0 -0 -0
-45 -25 -14 -4 -0 -0 -0 -0 -0 -0 -0 -0 -0 -0 -94 -0 -0 -0 -0 -0 -0 -0 -0 -0 -0 -0 -0 -0 -0 -0 -0 -0 -0 -0 -0 -0 -0 -0 -0 -0 -0 -0 -0 -0
-0 -19 -5 -0 -0 -0 -0 -0 -0 -0 -0 -0 -0 -0 -0 -0 -0 -0 -0 -0 -0 -0 -0 -0 -0 -0 -0 -0 -0 -0 -0 -0 -0 -0 -0 -0 -0 -0 -0 -0 -0 -0 -0 -0
-0 -0 -0 -0 -0 -0 -0 -0 -0 -0 -0 -0 -0 -17 -0 -0 -0 -0 -0 -0 -0 -0 -0 -0 -0 -0 -0 -0 -0 -0 -0 -0 -0 -0 -0 -0 -0 -0 -0 -0 -0 -0 -0 -0
-0 -0 -0 -0 -0 -0 -0 -0 -4 -0 -0 -0 -0 -0 -0 -0 -0 -0 -0 -0 -0 -0 -0 -0 -0 -0 -0 -0 -0 -0 -0 -0 -0 -0 -0 -0 -0 -0 -0 -0 -0 -0 -0 -0
-0 -0 -0 -0 -0 -0 -0 -0 -0 -0 -0 -0 -111 -28 -0 -0 -0 -0 -0 -0 -0 -0 -0 -0 -0 -0 -0 -0 -0 -0 -0 -0 -0 -0 -0 -0 -0 -0 -0 -0 -0 -0 -0 -0
-0 -0 -0 -0 -0 -0 -0 -0 -0 -0 -0 -0 -0 -0 -0 -0 -0 -0 -0 -0 -0 -0 -0 -0 -0 -0 -0 -0 -0 -0 -0 -0 -0 -0 -0 -0 -0 -0 -0 -0 -0 -0 -0 -0
-0 -0 -0 -0 -0 -0 -0 -0 -0 -0 -0 -0 -0 -0 -0 -0 -0 -0 -0 -0 -0 -0 -0 -0 -0 -0 -0 -0 -0 -0 -0 -0 -0 -0 -0 -0 -0 -0 -0 -0 -0 -0 -0 -0
-0 -0 -0 -0 -0 -0 -0 -0 -0 -0 -0 -9 -0 -0 -0 -0 -0 -0 -0 -0 -0 -0 -0 -0 -0 -0 -0 -0 -0 -0 -0 -0 -0 -0 -0 -0 -0 -0 -0 -0 -0 -0 -0 -0
Wind_Speed
17 18 16 15 15 20 18 19 23 21 24 25 22 22 18 20 16 14 12 11 13 13 13 12 13 14 14 16 17 18 18 18 16 16 18 21 23 24 25 25 26 28 29 29
23 27 20 21 20 22 24 27 29 31 29 25 27 28 25 22 19 17 15 16 16 16 15 14 14 14 15 15 16 17 19 19 18 18 18 20 21 24 24 25 27 28 29 30
25 24 17 20 22 24 25 27 29 32 30 28 31 35 31 27 22 20 18 18 18 18 16 14 13 13 13 14 16 17 18 19 18 16 16 18 20 22 25 27 27 28 30 31
29 25 28 29 28 23 32 24 28 29 28 33 27 40 30 25 22 23 23 20 19 18 16 13 12 12 12 13 14 15 17 17 18 17 18 20 20 22 23 25 26 28 30 31
27 26 24 30 31 26 33 27 28 28 30 32 31 33 34 25 29 26 26 22 20 17 15 13 11 10 10 12 13 14 15 17 17 17 17 19 19 20 22 23 26 28 30 31
34 30 28 26 26 22 27 25 25 27 30 40 31 31 40 31 31 29 27 19 15 13 11 10 9 8 10 11 12 14 15 16 17 17 18 19 19 21 23 24 26 28 29 30
37 39 36 36 38 30 25 25 33 37 37 42 26 30 35 32 33 32 30 19 13 10 9 8 8 7 8 9 11 12 14 15 16 17 18 19 19 20 21 23 25 27 28 29
31 37 26 28 32 31 28 25 31 38 39 41 29 35 32 29 27 25 21 15 12 11 9 8 9 8 7 8 11 12 13 14 15 17 17 17 19 20 20 22 24 25 27 28
31 36 28 29 26 24 30 33 30 35 34 39 34 28 24 22 22 20 17 13 13 12 10 9 8 6 7 6 5 8 10 11 11 14 17 18 18 19 21 22 24 25 26 27
29 38 30 27 25 26 28 24 31 33 40 43 37 34 30 23 21 17 15 12 10 9 8 10 11 9 6 7 10 11 11 12 13 15 15 16 17 19 21 23 24 25 26 27
29 31 31 30 27 28 26 29 29 29 33 40 40 36 23 16 15 17 15 13 10 11 11 12 12 9 7 9 11 12 14 15 15 14 15 16 17 18 20 21 22 23 25 25
23 29 37 33 25 24 23 25 27 33 35 34 34 36 14 15 18 15 14 17 16 15 14 13 10 10 10 10 11 12 13 14 15 12 14 14 16 17 19 20 22 22 24 24
26 30 39 36 28 24 26 26 25 27 29 36 37 36 20 23 24 23 21 17 17 18 18 14 12 11 11 10 11 11 11 13 12 13 12 15 17 18 17 19 19 21 22 23
20 25 31 38 30 25 32 31 28 30 35 37 38 42 34 29 27 27 28 28 24 22 17 14 13 13 13 11 12 12 12 10 10 11 15 17 16 14 16 18 19 20 21 22
22 31 29 28 27 28 29 28 29 32 30 34 33 34 38 40 37 35 28 30 25 17 14 14 14 14 14 13 13 12 11 10 11 13 15 16 14 15 16 18 19 19 20 21
25 35 35 42 40 39 34 34 33 34 34 37 38 42 40 42 37 33 30 26 22 17 14 15 15 15 14 13 11 10 11 11 8 14 15 14 14 15 15 17 18 18 19 20
22 25 28 39 30 32 37 35 37 40 40 36 33 36 37 35 32 32 28 24 22 21 16 16 14 13 11 10 9 9 9 9 11 13 13 13 12 13 14 15 16 17 18 18
22 23 26 32 28 43 34 31 31 33 32 31 32 34 34 33 30 25 23 23 22 19 17 15 14 12 11 9 8 6 8 9 11 12 11 10 10 11 13 13 14 15 16 17
26 26 30 33 37 38 41 38 32 34 42 36 38 34 27 25 23 23 18 21 23 23 17 14 12 10 8 7 6 6 7 9 10 10 9 9 9 9 10 11 12 13 15 17
25 27 31 31 36 41 38 30 28 25 46 30 26 26 24 20 28 24 19 22 25 22 15 12 10 8 7 5 4 5 7 9 10 9 8 8 8 8 8 8 10 12 14 16
21 25 30 35 37 38 36 31 31 39 41 31 22 19 17 22 23 24 23 24 22 18 14 12 9 7 5 3 4 7 7 8 8 8 7 7 7 7 8 7 8 11 13 15
25 27 30 30 34 40 21 24 29 26 28 29 30 31 28 27 26 27 24 21 18 15 14 11 9 7 5 4 5 7 9 8 7 6 7 6 6 7 7 7 8 9 12 14
25 17 23 19 25 20 15 22 27 29 35 36 35 36 31 28 25 22 22 19 18 16 12 10 7 6 7 6 6 6 6 5 5 5 5 6 6 7 7 7 7 9 11 13
19 17 16 19 16 17 18 25 29 32 36 36 32 30 25 24 20 19 16 15 13 11 9 7 6 8 7 9 8 6 4 4 4 3 4 5 5 6 7 7 7 7 9 11
16 14 15 14 17 19 17 18 27 29 30 32 27 23 20 16 17 15 15 13 10 8 6 6 6 9 9 8 7 4 3 2 2 2 3 4 5 5 6 7 7 8 9 10
17 20 16 18 18 18 19 17 17 25 23 16 22 19 14 13 15 15 13 10 10 9 8 8 9 8 8 7 6 3 1 0 1 1 2 3 4 5 6 7 8 9 9 10
Wind_Direction
304 298 287 287 284 295 304 301 298 299 301 304 303 304 298 305 303 287 273 264 275 280 292 302 313 324 332 336 340 342 344 346 349 350 350 347 345 348 349 354 353 351 345 342
296 289 289 296 294 289 289 292 292 293 298 299 299 296 297 297 295 285 276 273 272 277 282 293 304 314 324 332 339 341 342 343 342 341 345 346 348 349 350 351 352 352 348 342
281 295 307 291 286 285 286 288 291 292 297 298 300 294 291 290 287 292 281 270 270 267 273 285 297 309 321 330 337 341 343 345 347 351 356 356 352 350 349 351 351 351 347 343
287 282 282 288 287 284 283 288 292 290 293 293 301 295 297 293 288 288 290 279 275 271 275 279 291 303 316 327 339 343 344 345 349 352 351 352 350 348 353 354 354 353 348 343
284 293 283 281 283 280 285 290 290 287 288 294 294 295 299 295 293 294 294 284 276 269 267 269 280 297 317 328 334 339 342 343 347 351 356 358 356 357 356 358 355 353 349 346
279 286 289 289 295 290 293 287 290 291 291 286 288 290 295 293 296 303 306 297 277 269 263 269 284 301 317 329 332 334 336 342 346 350 352 354 353 353 352 353 351 352 352 350
280 276 278 280 283 285 284 282 284 285 282 284 292 288 287 299 301 305 304 306 298 283 269 264 277 295 317 328 332 336 337 337 339 344 348 350 352 353 351 351 350 349 349 349
283 285 280 277 265 275 272 268 276 283 285 290 292 291 295 306 311 314 309 306 301 291 274 268 281 296 310 324 331 335 335 334 335 335 346 349 347 349 352 351 348 347 347 348
284 284 288 285 287 269 272 265 273 280 288 288 289 295 306 311 317 323 320 312 301 290 274 268 274 280 292 303 304 328 327 340 339 349 344 342 348 349 348 350 345 347 347 346
288 284 287 291 294 281 270 276 276 276 277 280 286 289 292 296 305 314 317 316 311 290 274 269 283 288 301 309 313 321 323 322 332 342 341 344 348 347 346 343 345 346 347 347
280 281 284 294 291 289 281 275 278 282 278 278 285 289 294 294 305 310 309 305 290 279 280 283 286 283 291 303 309 318 321 323 329 335 337 339 341 347 345 346 347 348 350 350
289 287 281 281 288 301 291 280 279 277 282 284 285 286 302 305 313 315 306 301 294 291 291 290 286 288 291 295 305 314 324 325 321 338 344 347 343 344 348 349 351 352 350 352
289 286 282 283 283 290 289 291 293 293 289 281 283 286 306 303 307 308 305 298 295 295 296 293 284 283 282 291 304 314 327 332 337 346 350 338 341 337 349 353 355 350 348 347
305 287 281 281 288 298 283 288 292 293 284 285 285 291 295 298 304 308 301 295 295 296 294 290 285 280 282 292 299 307 318 336 343 344 334 332 343 354 353 351 350 347 349 349
299 285 288 289 295 299 293 288 286 286 288 289 292 297 294 294 297 297 298 302 301 299 294 285 284 286 285 289 295 306 317 325 335 336 336 335 346 350 351 347 348 351 351 352
278 282 286 285 288 285 288 288 288 289 288 286 287 289 289 291 297 297 298 302 307 307 303 299 294 288 284 284 293 302 312 324 331 334 335 340 342 343 344 347 351 356 354 355
282 280 284 284 289 290 286 287 287 288 287 286 286 288 298 300 298 300 301 304 305 306 306 300 294 290 285 282 287 294 311 321 327 335 339 340 343 346 350 354 356 356 356 357
285 287 289 289 292 282 289 291 294 292 292 291 292 297 302 303 303 305 308 307 310 311 307 302 298 296 293 292 294 304 318 321 328 333 340 347 350 351 353 358 360 2 2 1
279 284 287 287 286 291 289 290 292 292 286 292 295 302 307 311 311 308 311 312 311 311 310 308 304 302 303 294 295 306 320 326 331 339 340 343 347 350 356 359 6 9 8 4
278 283 282 287 288 288 292 296 301 305 289 301 303 305 308 312 304 311 315 313 312 314 315 313 310 311 306 299 297 316 316 328 330 337 342 345 348 354 1 12 17 17 14 9
286 286 284 286 287 290 292 297 304 288 293 310 311 315 315 309 311 314 315 313 315 317 317 319 315 308 307 305 302 315 319 322 332 339 347 352 356 5 13 25 32 27 19 14
286 291 292 294 292 292 307 304 291 300 301 306 302 301 304 306 309 310 311 311 314 315 316 313 308 306 306 310 314 317 316 326 338 346 346 356 8 5 19 37 51 32 23 22
287 297 307 306 309 321 316 305 301 301 295 296 297 297 302 304 306 309 310 311 309 310 314 311 298 298 302 311 319 322 326 335 347 347 353 8 12 24 37 49 46 30 32 31
294 304 312 322 332 322 316 313 308 302 294 294 298 300 305 305 309 313 318 317 317 317 313 313 300 293 301 306 317 326 333 340 339 351 6 12 27 28 25 27 27 38 40 32
294 301 307 312 317 327 328 323 313 309 302 298 299 305 308 314 317 321 320 320 321 316 312 302 298 298 301 308 316 322 329 340 354 357 23 23 28 24 20 13 24 26 24 30
284 289 293 301 310 315 318 326 329 310 314 324 301 306 317 321 322 327 328 322 314 309 306 301 302 303 303 308 314 318 322 75 38 24 34 34 33 29 35 33 23 23 26 16